This is the latest recevied weather packets stored in our database for station/object DG2US-10. If no packets are shown the sender has not sent any weather packets the latest 10 day(s).
| Time | Temp. | Humidity | Pressure | Rain* | Wind** | Luminosity | Snow |
|---|---|---|---|---|---|---|---|
| 1777857040 | 18.89° C | 31% | 1012.9 hPa | - | - | - | - |
| 1777856140 | 19.44° C | 31% | 1012.7 hPa | - | - | - | - |
| 1777855240 | 19.44° C | 30% | 1012.5 hPa | - | - | - | - |
| 1777854340 | 19.44° C | 30% | 1012.5 hPa | - | - | - | - |
| 1777853440 | 20° C | 30% | 1012.4 hPa | - | - | - | - |
| 1777852540 | 20° C | 30% | 1012.3 hPa | - | - | - | - |
| 1777851640 | 20.56° C | 30% | 1012.2 hPa | - | - | - | - |
| 1777850739 | 20.56° C | 29% | 1012.3 hPa | - | - | - | - |
| 1777849839 | 20.56° C | 31% | 1012.2 hPa | - | - | - | - |
| 1777848939 | 21.11° C | 29% | 1012.1 hPa | - | - | - | - |
| 1777848039 | 21.11° C | 29% | 1012 hPa | - | - | - | - |
| 1777847139 | 21.11° C | 28% | 1011.8 hPa | - | - | - | - |
| 1777846239 | 21.67° C | 28% | 1011.7 hPa | - | - | - | - |
| 1777845339 | 21.67° C | 28% | 1011.5 hPa | - | - | - | - |
| 1777844439 | 22.22° C | 28% | 1011.2 hPa | - | - | - | - |
| 1777843539 | 22.22° C | 27% | 1011.2 hPa | - | - | - | - |
| 1777842639 | 22.78° C | 27% | 1011.1 hPa | - | - | - | - |
| 1777841739 | 22.78° C | 27% | 1011.2 hPa | - | - | - | - |
| 1777840839 | 22.78° C | 27% | 1011.2 hPa | - | - | - | - |
| 1777839938 | 22.78° C | 27% | 1010.6 hPa | - | - | - | - |
| 1777839038 | 23.33° C | 27% | 1010.8 hPa | - | - | - | - |
| 1777838138 | 24.44° C | 27% | 1010.9 hPa | - | - | - | - |
| 1777837238 | 25° C | 26% | 1010.9 hPa | - | - | - | - |
| 1777836338 | 25.56° C | 24% | 1010.9 hPa | - | - | - | - |
| 1777835438 | 26.11° C | 24% | 1010.9 hPa | - | - | - | - |
* Rain since midnight (hover to see other rain measurements)
** Current wind speed in m/s (hover to see current wind gust speed)